Location: Gairloch Mountain Observatory
(46.1383°N, 60.9640°W)
Time: 07:36:02
(UTC-04:00)

CENTAUR R/B - Visible Passes

Search period start: 31 January 2015 00:00
Search period end: 10 February 2015 00:00
Orbit: 887 x 1302 km, 63.5° (Epoch: 17 January)

Date Brightness Start Highest point End Pass type
(mag) Time Alt. Az. Time Alt. Az. Time Alt. Az.
31 Jan 4.0 03:43:08 38° SE 03:43:08 38° SE 03:47:41 10° SE visible
31 Jan 4.0 05:30:25 25° WSW 05:30:25 25° WSW 05:35:57 10° SSW visible
31 Jan 2.5 19:15:15 10° SSW 19:21:25 68° ESE 19:23:40 43° ENE visible
31 Jan 4.1 21:06:43 10° W 21:10:55 31° WNW 21:10:55 31° WNW visible
01 Feb 5.0 02:57:38 17° ESE 02:57:38 17° ESE 02:59:13 10° SE visible
01 Feb 4.0 04:44:54 30° SSW 04:44:54 30° SSW 04:49:13 10° S visible
01 Feb 3.0 18:27:46 10° S 18:33:29 41° ESE 18:37:53 19° ENE visible
01 Feb 3.3 20:17:55 10° WSW 20:24:06 49° NW 20:25:08 46° NNW visible
01 Feb 5.2 22:11:28 10° WNW 22:12:23 13° WNW 22:12:23 13° WNW visible
02 Feb 4.6 03:59:27 21° SSE 03:59:27 21° SSE 04:01:48 10° SSE visible
02 Feb 4.8 05:46:44 10° SW 05:46:44 10° SW 05:46:45 10° SW visible
02 Feb 3.6 17:40:54 10° SSE 17:45:43 25° ESE 17:51:03 10° ENE visible
02 Feb 2.7 19:29:26 10° SW 19:35:44 72° NW 19:39:14 31° NNE visible
02 Feb 4.5 21:22:13 10° WNW 21:26:29 25° NW 21:26:29 25° NW visible
03 Feb 4.9 05:01:20 11° SSW 05:01:20 11° SSW 05:01:39 10° SSW visible
03 Feb 2.5 18:41:21 10° SSW 18:47:34 75° SE 18:53:15 16° NE visible
03 Feb 4.0 20:33:06 10° W 20:38:58 33° NNW 20:40:29 30° N visible
03 Feb 5.3 22:27:04 10° NW 22:27:42 12° NW 22:27:42 12° NW visible
04 Feb 2.9 17:53:43 10° S 17:59:35 47° ESE 18:06:06 10° NE visible
04 Feb 3.5 19:44:13 10° WSW 19:50:21 45° NW 19:54:23 23° NNE visible
04 Feb 4.7 21:37:54 10° WNW 21:41:36 20° NNW 21:41:36 20° NNW visible
05 Feb 2.9 18:55:40 10° SW 19:01:56 66° NW 19:08:12 13° NE visible
05 Feb 4.4 20:48:39 10° WNW 20:54:05 25° NNW 20:55:25 24° N visible
05 Feb 5.4 22:42:20 10° NW 22:42:38 11° NW 22:42:38 11° NW visible
06 Feb 2.6 18:07:28 10° SSW 18:13:43 84° SE 18:20:42 10° NE visible
06 Feb 4.1 19:59:30 10° W 20:05:16 31° NNW 20:09:09 19° NNE visible
06 Feb 4.9 21:53:27 10° NW 21:56:22 18° NNW 21:56:22 18° NNW visible
07 Feb 3.7 19:10:33 10° WSW 19:16:37 42° NW 19:22:50 12° NNE visible
07 Feb 4.6 21:04:20 10° WNW 21:09:23 21° N 21:10:02 21° N visible
07 Feb 5.4 22:57:10 10° NNW 22:57:15 10° NNW 22:57:15 10° NNW visible
08 Feb 3.1 18:21:54 10° SW 18:28:09 60° NW 18:35:07 10° NE visible
08 Feb 4.4 20:15:06 10° WNW 20:20:26 24° NNW 20:23:39 18° NNE visible
08 Feb 5.0 22:08:39 10° NW 22:10:51 16° NNW 22:10:51 16° NNW visible
09 Feb 4.2 19:25:54 10° W 19:31:36 29° NNW 19:37:14 12° NNE visible
09 Feb 4.7 21:19:50 10° NW 21:24:26 20° N 21:24:26 20° N visible
